DW0946 Weather Reports


Display with metric or nautical units.
time (UTC)temp
F
wind
direction
speed
MPH
gust
MPH
rain 1hr
in
rain 24hr
in
rain mn
in
humidity
%
barometer
mb
20180919044604 63 268 0.0 0.0 0.00 0.00 0.00 93 1021.3
20180919043111 63 269 0.0 0.0 0.00 0.00 0.00 93 1021.4
20180919041553 63 268 0.0 0.0 0.00 0.00 0.00 92 1021.2
20180919040109 64 268 0.0 0.0 0.00 0.00 0.00 92 1021.1
20180919034558 64 268 0.0 0.0 0.00 0.00 0.00 91 1021.1
20180919033102 64 269 0.0 0.0 0.00 0.00 0.00 91 1021.0
20180919031642 65 264 0.0 2.0 0.00 0.00 0.00 90 1020.9
20180919030207 65 270 0.0 2.0 0.00 0.00 0.00 89 1020.8
20180919024625 65 224 0.0 2.0 0.00 0.00 0.00 88 1020.6
20180919023104 66 246 1.0 3.0 0.00 0.00 0.00 87 1020.6
20180919021550 67 267 2.0 4.0 0.00 0.00 0.00 85 1020.5
20180919020059 68 229 1.0 3.0 0.00 0.00 0.00 81 1020.5
20180919014556 70 242 1.0 4.0 0.00 0.00 0.00 77 1020.4
20180919013047 72 249 2.0 5.0 0.00 0.00 0.00 73 1020.3
20180919011549 73 240 2.0 5.0 0.00 0.00 0.00 70 1020.2
20180919010050 74 274 2.0 6.0 0.00 0.00 0.00 67 1020.1
20180919004550 76 305 1.0 5.0 0.00 0.00 0.00 63 1020.0
20180919003049 76 215 1.0 6.0 0.00 0.00 0.00 64 1020.0
20180919001558 76 287 2.0 6.0 0.00 0.00 0.00 63 1020.0
20180919000041 76 287 3.0 9.0 0.00 0.00 0.00 62 1020.0
20180918234556 77 345 3.0 8.0 0.00 0.00 0.00 60 1020.1
20180918233057 78 305 2.0 9.0 0.00 0.00 0.00 59 1020.1
20180918231607 78 278 4.0 9.0 0.00 0.00 0.00 55 1020.2
20180918230043 78 287 5.0 8.0 0.00 0.00 0.00 54 1020.3
20180918224547 78 271 5.0 9.0 0.00 0.00 0.00 56 1020.4
20180918223047 79 253 4.0 9.0 0.00 0.00 0.00 57 1020.4
20180918221543 80 243 4.0 9.0 0.00 0.00 0.00 54 1020.5
20180918220030 79 288 3.0 9.0 0.00 0.00 0.00 54 1020.5
20180918214539 80 252 3.0 8.0 0.00 0.00 0.00 52 1020.6
20180918213037 81 221 3.0 9.0 0.00 0.00 0.00 52 1020.8
20180918211637 81 284 3.0 8.0 0.00 0.00 0.00 54 1021.1
20180918210606 80 236 3.0 8.0 0.00 0.00 0.00 56 1021.3
20180918203026 80 267 4.0 8.0 0.00 0.00 0.00 56 1021.6
20180918201524 80 253 3.0 7.0 0.00 0.00 0.00 57 1021.9
20180918200016 80 282 5.0 9.0 0.00 0.00 0.00 56 1022.0
20180918194512 80 184 3.0 8.0 0.00 0.00 0.00 57 1021.9
20180918193011 80 262 2.0 7.0 0.00 0.00 0.00 58 1022.1
20180918191529 80 269 3.0 8.0 0.00 0.00 0.00 58 1022.2
20180918190006 80 226 3.0 6.0 0.00 0.00 0.00 58 1022.4
20180918184505 79 243 2.0 5.0 0.00 0.00 0.00 57 1022.6
20180918183004 79 200 2.0 6.0 0.00 0.00 0.00 57 1022.8
20180918181602 78 307 2.0 5.0 0.00 0.00 0.00 54 1023.0
20180918180208 77 267 0.0 4.0 0.00 0.00 0.00 55 1023.2
20180918174623 75 252 1.0 4.0 0.00 0.00 0.00 60 1023.2
20180918173105 74 244 1.0 6.0 0.00 0.00 0.00 64 1023.3
20180918171625 73 246 2.0 4.0 0.00 0.00 0.00 69 1023.5
20180918170045 73 197 2.0 4.0 0.00 0.00 0.00 69 1023.5
20180918164619 71 243 1.0 5.0 0.00 0.00 0.00 69 1023.7
20180918163050 70 263 0.0 3.0 0.00 0.00 0.00 72 1023.7
20180918161537 68 186 0.0 1.0 0.00 0.00 0.00 73 1023.7
20180918160030 66 293 0.0 0.0 0.00 0.00 0.00 75 1023.6
20180918154532 64 214 0.0 0.0 0.00 0.00 0.00 74 1023.7
20180918153047 63 318 0.0 0.0 0.00 0.00 0.00 72 1023.6
20180918151517 62 318 0.0 0.0 0.00 0.00 0.00 74 1023.6
20180918150015 60 318 0.0 0.0 0.00 0.00 0.00 76 1023.6
20180918144523 59 318 0.0 0.0 0.00 0.00 0.00 78 1023.5
20180918143036 58 321 0.0 0.0 0.00 0.00 0.00 80 1023.4
20180918141509 58 315 0.0 0.0 0.00 0.00 0.00 82 1023.3
20180918140010 57 311 0.0 0.0 0.00 0.00 0.00 83 1023.0
20180918134524 57 311 0.0 0.0 0.00 0.00 0.00 84 1022.9
20180918133036 57 314 0.0 0.0 0.00 0.00 0.00 85 1022.8
20180918093048 59 277 0.0 0.0 0.00 0.00 0.00 91 1022.8
20180918090106 60 276 0.0 0.0 0.00 0.00 0.00 91 1023.0
20180918084554 59 276 0.0 0.0 0.00 0.00 0.00 91 1023.1
20180918083052 59 277 0.0 0.0 0.00 0.00 0.00 89 1023.1
20180918081537 60 277 0.0 0.0 0.00 0.00 0.00 89 1023.1
20180918080051 60 277 0.0 0.0 0.00 0.00 0.00 90 1023.2
20180918074536 59 276 0.0 0.0 0.00 0.00 0.00 89 1023.2
20180918073044 60 277 0.0 0.0 0.00 0.00 0.00 89 1023.2
20180918071546 60 277 0.0 0.0 0.00 0.00 0.00 88 1023.2
20180918070032 60 277 0.0 0.0 0.00 0.00 0.00 89 1023.2
20180918064543 60 277 0.0 0.0 0.00 0.00 0.00 88 1023.2
20180918063040 61 277 0.0 0.0 0.00 0.00 0.00 88 1023.3
20180918061534 61 277 0.0 0.0 0.00 0.00 0.00 89 1023.3
20180918060034 62 276 0.0 0.0 0.00 0.00 0.00 89 1023.2
20180918054533 62 277 0.0 0.0 0.00 0.00 0.00 89 1023.2
20180918053024 63 276 0.0 0.0 0.00 0.00 0.00 89 1023.3
20180918051543 64 277 0.0 0.0 0.00 0.00 0.00 88 1023.2
20180918050046 64 276 0.0 0.0 0.00 0.00 0.00 88 1023.1